When you browse on this site, cookies collect data to enhance your experience and personalize the content and advertising you see.
Visit our Privacy Policy to learn more. By continuing to use the site, you agree to this use of cookies and data.
  • In Deutschland
  • Länderverzeichnis
  • Für 7 Tage
  • Wassertemperatur
  • Satellitenkarten
  • Wetterkarte
  • Widgets
  • user-avatar
    Anmelden

    Stündliche Wetter Gotha

    Heute, 19 November, Montag

    Zeit Temperatur Niederschläge Wind Luftdruck Luftfeuchtigkeit
    00:00 -1°C° 0.1 mm 4 m/S 739 mmHg 85%
    01:00 +2°C° 0 mm 2 m/S 739 mmHg 88%
    02:00 +1°C° 0.2 mm 3 m/S 739 mmHg 89%
    03:00 0°C° 0.2 mm 4 m/S 738 mmHg 90%
    04:00 0°C° 0.2 mm 5 m/S 738 mmHg 91%
    05:00 0°C° 0.3 mm 5 m/S 737 mmHg 90%
    06:00 0°C° 0.3 mm 5 m/S 737 mmHg 89%
    07:00 0°C° 0 mm 5 m/S 737 mmHg 86%
    08:00 -1°C° 0.2 mm 6 m/S 736 mmHg 85%
    09:00 -1°C° 0.2 mm 6 m/S 736 mmHg 84%
    10:00 -1°C° 0.2 mm 6 m/S 736 mmHg 83%
    11:00 -1°C° 0.1 mm 6 m/S 736 mmHg 81%
    12:00 0°C° 0.1 mm 7 m/S 736 mmHg 79%
    13:00 +1°C° 0 mm 6 m/S 736 mmHg 78%
    14:00 0°C° 0.1 mm 7 m/S 735 mmHg 78%
    15:00 -1°C° 0.1 mm 7 m/S 735 mmHg 77%
    16:00 -1°C° 0.1 mm 7 m/S 735 mmHg 77%
    17:00 -2°C° 0 mm 7 m/S 735 mmHg 78%
    18:00 -2°C° 0 mm 7 m/S 735 mmHg 80%
    19:00 -3°C° 0 mm 7 m/S 735 mmHg 82%
    20:00 -3°C° 0 mm 7 m/S 735 mmHg 82%
    21:00 -4°C° 0 mm 7 m/S 734 mmHg 82%
    22:00 -4°C° 0 mm 7 m/S 734 mmHg 83%
    23:00 -4°C° 0 mm 6 m/S 734 mmHg 82%

    Morgen, 20 November, Dienstag

    Zeit Temperatur Niederschläge Wind Luftdruck Luftfeuchtigkeit
    00:00 -4°C° 0 mm 6 m/S 734 mmHg 82%
    01:00 -5°C° 0 mm 6 m/S 734 mmHg 82%
    02:00 -5°C° 0 mm 6 m/S 733 mmHg 82%
    03:00 -6°C° 0 mm 7 m/S 733 mmHg 82%
    04:00 -6°C° 0 mm 7 m/S 732 mmHg 82%
    05:00 -6°C° 0 mm 7 m/S 732 mmHg 81%
    06:00 -4°C° 0 mm 7 m/S 732 mmHg 80%
    07:00 -4°C° 0 mm 7 m/S 732 mmHg 80%
    08:00 -4°C° 0 mm 7 m/S 732 mmHg 79%
    09:00 -3°C° 0 mm 7 m/S 732 mmHg 77%
    10:00 -2°C° 0 mm 7 m/S 731 mmHg 76%
    11:00 -2°C° 0.5 mm 7 m/S 731 mmHg 79%
    12:00 -2°C° 0.5 mm 7 m/S 731 mmHg 81%
    13:00 -2°C° 0.5 mm 6 m/S 731 mmHg 83%
    14:00 -2°C° 0.5 mm 6 m/S 731 mmHg 85%
    15:00 -2°C° 0.5 mm 6 m/S 731 mmHg 86%
    16:00 -2°C° 0.5 mm 6 m/S 731 mmHg 88%
    17:00 -1°C° 0 mm 5 m/S 731 mmHg 89%
    18:00 -1°C° 0 mm 5 m/S 732 mmHg 90%
    19:00 -1°C° 0 mm 5 m/S 732 mmHg 91%
    20:00 -2°C° 0 mm 4 m/S 732 mmHg 92%
    21:00 -2°C° 0 mm 4 m/S 732 mmHg 93%
    22:00 -2°C° 0 mm 3 m/S 733 mmHg 94%
    23:00 -2°C° 0 mm 3 m/S 733 mmHg 94%

    übermorgen, 21 November, Mittwoch

    Zeit Temperatur Niederschläge Wind Luftdruck Luftfeuchtigkeit
    00:00 -2°C° 0 mm 3 m/S 733 mmHg 95%
    01:00 -4°C° 0 mm 3 m/S 733 mmHg 95%
    02:00 -4°C° 0 mm 3 m/S 733 mmHg 96%
    03:00 -3°C° 0 mm 2 m/S 733 mmHg 96%
    04:00 -3°C° 0 mm 2 m/S 734 mmHg 96%
    05:00 -3°C° 0 mm 2 m/S 734 mmHg 96%
    06:00 -3°C° 0 mm 2 m/S 734 mmHg 96%
    07:00 -4°C° 0 mm 3 m/S 734 mmHg 96%
    08:00 -2°C° 0 mm 3 m/S 735 mmHg 95%
    09:00 -1°C° 0 mm 3 m/S 735 mmHg 93%
    10:00 -1°C° 0 mm 3 m/S 736 mmHg 91%
    11:00 0°C° 0 mm 3 m/S 736 mmHg 91%
    12:00 0°C° 0 mm 3 m/S 736 mmHg 90%
    13:00 +1°C° 0 mm 3 m/S 736 mmHg 90%
    14:00 +1°C° 0 mm 3 m/S 736 mmHg 91%
    15:00 +1°C° 0 mm 3 m/S 736 mmHg 92%
    16:00 +1°C° 0 mm 3 m/S 736 mmHg 94%
    17:00 +1°C° 0 mm 3 m/S 737 mmHg 94%
    18:00 0°C° 0 mm 3 m/S 737 mmHg 94%
    19:00 0°C° 0 mm 3 m/S 737 mmHg 95%
    20:00 0°C° 0 mm 3 m/S 737 mmHg 95%
    21:00 0°C° 0 mm 3 m/S 737 mmHg 95%
    22:00 0°C° 0 mm 3 m/S 737 mmHg 95%
    23:00 0°C° 0 mm 3 m/S 738 mmHg 95%

    22 November, Donnerstag

    Zeit Temperatur Niederschläge Wind Luftdruck Luftfeuchtigkeit
    00:00 0°C° 0 mm 3 m/S 738 mmHg 95%
    01:00 0°C° 0 mm 3 m/S 738 mmHg 95%
    02:00 0°C° 0 mm 3 m/S 738 mmHg 95%
    03:00 +1°C° 0 mm 2 m/S 738 mmHg 95%
    04:00 +1°C° 0 mm 2 m/S 738 mmHg 96%
    05:00 +1°C° 0 mm 2 m/S 738 mmHg 96%
    06:00 +1°C° 0 mm 2 m/S 738 mmHg 96%
    07:00 +1°C° 0 mm 2 m/S 738 mmHg 96%
    08:00 +1°C° 0 mm 2 m/S 738 mmHg 95%
    09:00 +1°C° 0 mm 2 m/S 738 mmHg 95%
    10:00 +2°C° 0 mm 2 m/S 739 mmHg 94%
    11:00 +2°C° 0 mm 2 m/S 739 mmHg 93%
    12:00 +2°C° 0 mm 2 m/S 739 mmHg 92%
    13:00 +3°C° 0 mm 2 m/S 739 mmHg 91%
    14:00 +4°C° 0 mm 1 m/S 739 mmHg 93%
    15:00 +3°C° 0 mm 1 m/S 739 mmHg 94%
    16:00 +3°C° 0 mm 1 m/S 739 mmHg 96%
    17:00 +3°C° 0 mm 1 m/S 739 mmHg 96%
    18:00 +3°C° 0 mm 1 m/S 739 mmHg 97%
    19:00 +2°C° 0 mm 1 m/S 739 mmHg 97%
    20:00 +2°C° 0 mm 1 m/S 739 mmHg 97%
    21:00 +3°C° 0 mm 1 m/S 740 mmHg 97%
    22:00 +3°C° 0 mm 1 m/S 740 mmHg 97%
    23:00 +3°C° 0 mm 1 m/S 740 mmHg 97%

    23 November, Freitag

    Zeit Temperatur Niederschläge Wind Luftdruck Luftfeuchtigkeit
    00:00 +2°C° 0 mm 1 m/S 740 mmHg 97%
    01:00 +2°C° 0 mm 1 m/S 740 mmHg 97%
    02:00 +2°C° 0 mm 1 m/S 740 mmHg 97%
    03:00 +2°C° 0 mm 1 m/S 740 mmHg 96%
    04:00 +2°C° 0 mm 1 m/S 740 mmHg 96%
    05:00 +2°C° 0 mm 1 m/S 740 mmHg 96%
    06:00 +2°C° 0 mm 1 m/S 740 mmHg 96%
    07:00 +2°C° 0 mm 1 m/S 740 mmHg 96%
    08:00 +3°C° 0 mm 1 m/S 740 mmHg 95%
    09:00 +3°C° 0 mm 1 m/S 740 mmHg 94%
    10:00 +4°C° 0 mm 1 m/S 741 mmHg 93%
    11:00 +5°C° 0 mm 1 m/S 740 mmHg 89%
    12:00 +6°C° 0 mm 1 m/S 740 mmHg 85%
    13:00 +7°C° 0 mm 1 m/S 740 mmHg 82%
    14:00 +6°C° 0 mm 1 m/S 740 mmHg 84%
    15:00 +5°C° 0 mm 1 m/S 739 mmHg 87%
    16:00 +5°C° 0 mm 1 m/S 739 mmHg 89%
    17:00 +4°C° 0 mm 1 m/S 739 mmHg 89%
    18:00 +4°C° 0 mm 1 m/S 739 mmHg 90%
    19:00 +3°C° 0 mm 1 m/S 739 mmHg 90%
    20:00 +3°C° 0 mm 1 m/S 738 mmHg 89%
    21:00 +3°C° 0 mm 1 m/S 738 mmHg 89%
    22:00 +3°C° 0 mm 1 m/S 738 mmHg 89%
    23:00 +3°C° 0 mm 1 m/S 738 mmHg 88%

    24 November, Samstag

    Zeit Temperatur Niederschläge Wind Luftdruck Luftfeuchtigkeit
    00:00 +3°C° 0 mm 1 m/S 737 mmHg 88%
    01:00 +3°C° 0 mm 1 m/S 737 mmHg 88%
    02:00 +3°C° 0 mm 1 m/S 736 mmHg 87%
    03:00 +4°C° 0 mm 1 m/S 736 mmHg 86%
    04:00 +4°C° 0 mm 1 m/S 736 mmHg 85%
    05:00 +4°C° 0 mm 1 m/S 735 mmHg 85%
    06:00 +4°C° 0 mm 1 m/S 735 mmHg 85%
    07:00 +4°C° 0 mm 1 m/S 735 mmHg 85%
    08:00 +4°C° 0 mm 1 m/S 734 mmHg 84%
    09:00 +5°C° 0 mm 1 m/S 734 mmHg 84%
    10:00 +4°C° 0 mm 2 m/S 734 mmHg 83%
    11:00 +4°C° 0.2 mm 2 m/S 733 mmHg 83%
    12:00 +5°C° 0.2 mm 2 m/S 733 mmHg 84%
    13:00 +5°C° 0.2 mm 2 m/S 732 mmHg 84%
    14:00 +4°C° 0.2 mm 2 m/S 732 mmHg 87%
    15:00 +5°C° 0.2 mm 1 m/S 732 mmHg 90%
    16:00 +5°C° 0.2 mm 1 m/S 732 mmHg 92%
    17:00 +4°C° 0.5 mm 1 m/S 732 mmHg 93%
    18:00 +4°C° 0.5 mm 1 m/S 732 mmHg 94%
    19:00 +4°C° 0.5 mm 1 m/S 732 mmHg 96%
    20:00 +4°C° 0.4 mm 1 m/S 732 mmHg 96%
    21:00 +4°C° 0.4 mm 1 m/S 732 mmHg 96%
    22:00 +4°C° 0.4 mm 1 m/S 732 mmHg 97%
    23:00 +4°C° 0.2 mm 1 m/S 732 mmHg 97%
    Mehr zeigen